sat.trackr.live / text

‹ back to catalog

LEMUR-2-LANGER2SPACE

NORAD 63358 · 2025-061H

PAYLOAD ACTIVE UNKNOWN

§ Identity

Operator
Country
US
Launch date
2025-03-26
Launch site
RLLB
Launch vehicle
Mass (kg)
RCS (m²)

Purposes: earth_obs

External: N2YO · Heavens-Above · Gunter

§ Orbital elements

Epoch: 2026-09-19T18:07:29.191872Z

Period
95.06 min
Inclination
97.5731°
Eccentricity
0.0014842
Mean motion
15.14881096 rev/d
Perigee alt
511.1 km
Apogee alt
531.6 km
Semi-major
6,899.5 km
B*
1.5441e-4
RAAN
237.9596°
Arg perigee
294.2072°
Mean anomaly
65.7609°
Rev number
8,193

§ Raw data

LEMUR-2-LANGER2SPACE1 63358U 25061H   26262.75519898  .00002812  00000+0  15441-3 0  99992 63358  97.5731 237.9596 0014842 294.2072  65.7609 15.14881096 81932

JSON: /api/v1/satellites/63358 · /tle

For live sub-satellite position, see the globe view (requires WebGL).

§ Visibility from observer

Set your observer location to see the next 7 days of passes ≥ 10°. The values pass through the URL so the page stays shareable.

No JS? Fill the form by hand. The geolocation button needs JavaScript.

§ Radio — SatNOGS DB

ModeDescriptionDownlinkUplink
FM Mode U - Transmitter 401.100 MHz

1 transmitter · refreshed weekly from db.satnogs.org